Regional Weather Roundup
Issued by NWS

Home | Current Version | Previous Version | Text Only | Print | Product List | Glossary On
Versions: 1 2 3 4 5 6 7 8 9 10 11 12 13 14 15 16 17 18 19 20 21 22 23 24 25 26 27 28 29 30 31 32 33 34 35 36 37 38 39 40 41 42 43 44 45 46 47 48 49 50
000
ASUS43 KLOT 220709
RWRIL

ILLINOIS REGIONAL WEATHER ROUNDUP
NATIONAL WEATHER SERVICE CHICAGO/ROMEOVILLE IL
200 AM CDT WED MAY 22 2019

NOTE: "FAIR" INDICATES FEW OR NO CLOUDS BELOW 12,000 FEET WITH NO
SIGNIFICANT WEATHER AND/OR OBSTRUCTIONS TO VISIBILITY.

* THESE STATIONS ARE NOT UNDER NWS QUALITY CONTROL. THEY ALSO MAY NOT
  REPORT WEATHER SUCH AS PRECIPITATION OR FOG.

ILZ001-002-007-009-015-016-024-220800-
NORTHWEST ILLINOIS

CITY           SKY/WX    TMP DP  RH WIND       PRES   REMARKS
MOLINE         CLOUDY    57  53  86 SE15      29.71F
STERLING*      CLOUDY    52  49  89 SE14G21   29.78R
$$

ILZ003-004-008-010-011-017-018-220800-
NORTH CENTRAL ILLINOIS

CITY           SKY/WX    TMP DP  RH WIND       PRES   REMARKS
ROCKFORD       LGT RAIN  51  48  89 SE20G44   29.75F
FREEPORT*      CLOUDY    50  49  96 S22       29.82R
ROCHELLE*      FAIR      50  49  97 SE25G40   29.77R
DE KALB*       LGT RAIN  50  49  99 SE23G31   29.81F
PERU*          CLOUDY    51  49  92 SE26G35   29.75R
$$

ILZ005-006-012>014-019>023-220800-
NORTHEAST ILLINOIS

CITY           SKY/WX    TMP DP  RH WIND       PRES   REMARKS
CHICAGO-OHARE  LGT RAIN  50  48  93 NE3       29.91F
CHICAGO-MIDWAY HVY RAIN  51  50  96 CALM      29.91F FOG
AURORA         LGT RAIN  51  48  89 E21G31    29.84F
LANSING*       RAIN      51  50  98 CALM      29.91F
JOLIET*        LGT RAIN  52  52 100 SE6       29.90F
WAUKEGAN       LGT RAIN  48  43  82 SE7       29.93F
DUPAGE AIRPORT LGT RAIN  51  48  89 E12       29.88F
KANKAKEE*      HVY RAIN  51  50  98 CALM      29.93S
WHEELING       RAIN      51  47  86 CALM      29.94F FOG
MORRIS*        LGT RAIN  51  51  98 E20       29.83F
ROMEOVILLE*    RAIN      50  50  99 E5        29.91F
NORTHERLY ISL    N/A     51  48  89 SW1         N/A
$$

LMZ740>746-220800-
SOUTHERN LAKE MICHIGAN

STATION/POSITION SKY/WX   TEMP    WIND        PRES    VSBY  WAVE
                          AIR SEA DIR/SP/G                  HT/PER
                          (F)     (DEG/KT/KT) (MB)    (MI)  (FT/S)
SOUTHERN BUOY              46 39  110/ 17/ 21 1012.9F         3/ 5
WINTHROP HARBOR            46 46  150/  8/ 10   N/A           3/ 4
WAUKEGAN HARBOR            47 47  120/  6/  8   N/A           3/ 5
WILMETTE HARBOR            48     130/  8/ 10 1014.0          3/ 5
HARRISON CRIB              52     190/  5/  6   N/A
NORTHERLY ISL              51     240/  2/ 10   N/A
CALUMET HARBOR             50      CALM  /  4 1012.3R
BURNS HARBOR               55     130/ 10/ 17 1012.2R
MICHIGAN CITY              56     110/ 28/ 36   N/A
MICHIGAN CITY 6N           54 51  140/ 21/ 27   N/A           4/ 3
ST. JOSEPH                 56 52  110/ 23/ 31 1012.1          3/ 3
$$

ILZ025>027-034>036-040-047-049-050-058-095>099-220800-
WEST-CENTRAL ILLINOIS

CITY           SKY/WX    TMP DP  RH WIND       PRES   REMARKS
QUINCY         PTCLDY    58  55  90 SE13      29.69R
GALESBURG*     CLOUDY    56  56  97 SE10G18   29.73R
MACOMB*        CLOUDY    56  56  99 SE14      29.74S
JACKSONVILLE*  PTCLDY    58  57  96 SE12      29.75R
PITTSFIELD*    PTCLDY    59  58  98 SE9       29.73R
$$

ILZ028>032-037-038-041>044-048-051>054-059>061-220800-
CENTRAL ILLINOIS

CITY           SKY/WX    TMP DP  RH WIND       PRES   REMARKS
PONTIAC        LGT RAIN  52  51  98 E26G32    29.80F
BLOOMINGTON    LGT RAIN  56  56 100 S10       29.82F
DECATUR        LGT RAIN  61  59  93 SE15G21   29.78F
PEORIA         FAIR      57  55  93 SE7G18    29.76R
LACON*         CLOUDY    53  52  94 SE16G22   29.75S
LINCOLN*       LGT RAIN  60  59  99 SE6       29.77R
SPRINGFIELD    FAIR      59  59 100 SE12      29.76R
TAYLORVILLE    LGT RAIN  61  60  99 SE12      29.77F
$$

ILZ033-039-045-046-055>057-062-063-220800-
EAST-CENTRAL ILLINOIS

CITY           SKY/WX    TMP DP  RH WIND       PRES   REMARKS
CHAMPAIGN      LGT RAIN  57  56  96 E12       29.84S FOG
DANVILLE*      RAIN      54  54  99 E8        29.83F
RANTOUL*       RAIN      56  56  99 E10       29.84F
MATTOON        HVY RAIN  61  60  97 SE7       29.83F FOG
PARIS*         HVY RAIN  62  60  95 SE8       29.87S
$$

ILZ079-100>102-220800-
SOUTHWEST ILLINOIS

CITY           SKY/WX    TMP DP  RH WIND       PRES   REMARKS
ALTON          PTCLDY    59  59 100 SE8       29.77R
BELLEVILLE     CLOUDY    60  59  96 S8        29.76S
CAHOKIA*       PTCLDY    60  58  92 S7        29.77R
SPARTA*        LGT RAIN  60  59  99 SE10      29.79S
$$

ILZ064>066-069>071-074>076-080>082-084>086-088>090-092>094-220800-
SOUTH-CENTRAL ILLINOIS

CITY           SKY/WX    TMP DP  RH WIND       PRES   REMARKS
CARBONDALE     TSTM      61  60  97 SW13      29.85R FOG
CAIRO*         LGT RAIN  65  60  85 CALM      29.86R
EFFINGHAM*     RAIN      61  61 100 E3        29.85F
MARION         HVY RAIN  62  62  99 SW6       29.89R
MT. VERNON     RAIN      60  60 100 S5        29.84R FOG
CENTRALIA*     RAIN      60  60 100 SE7       29.79F
SALEM*         LGT RAIN  62  61  96 SW3       29.83R
METROPOLIS*    CLOUDY    65  63  93 W5        29.88R
$$

ILZ067-068-072-073-078-083-087-091-220800-
SOUTHEAST ILLINOIS

CITY           SKY/WX    TMP DP  RH WIND       PRES   REMARKS
LAWRENCEVILLE  LGT RAIN  66  64  93 W10       29.87R
FLORA*         LGT RAIN  64  63  96 CALM      29.84F
FAIRFIELD*     LGT RAIN  62  62 100 CALM      29.85R
HARRISBURG*    CLOUDY    64  64 100 CALM      29.85F
ROBINSON*      HVY RAIN  64  64 100 W12       29.89R
CARMI*         LGT RAIN  63  63 100 CALM      29.87R
$$

ABBREVIATIONS USED IN REMARKS
   TC - TEMPERATURE IN CELSIUS
  WCI - WIND CHILL INDEX
   HX - HEAT INDEX
  VSB - VISIBILITY
$$




USA.gov is the U.S. government's official web portal to all federal, state and local government web resources and services.